Wind_Speed
22 20 17 19 19 19 21 24 25 26 27 31 34 35 35 38 40 38 36 36 41 46 49 51 52 53 55 58 60 64 66 67 66 67 67 68 70 71 72 73 74 73 72 72
22 20 20 22 22 21 24 27 30 31 33 35 39 44 44 44 44 44 42 41 45 48 51 50 49 50 52 55 60 65 68 69 70 71 73 73 73 73 73 74 74 71 72 78
26 27 28 30 31 31 30 32 33 37 39 40 42 47 50 48 49 48 46 45 50 53 51 48 51 56 54 55 61 66 69 70 68 69 70 72 71 63 67 69 70 72 75 77
33 34 33 35 38 37 37 36 36 40 44 44 45 49 52 51 52 51 50 52 52 51 52 54 56 56 56 59 62 64 67 67 69 71 70 67 50 61 66 69 70 75 74 71
39 39 39 42 44 43 44 41 42 45 51 52 53 52 54 54 54 54 53 53 55 57 58 55 54 57 61 63 65 64 65 68 69 65 64 49 56 61 66 68 72 68 66 70
47 45 49 51 50 49 51 49 50 51 54 56 59 56 54 55 55 56 56 56 59 60 59 60 60 62 63 66 67 67 70 72 66 60 43 50 56 61 65 65 64 65 71 78
54 52 54 55 54 52 53 54 55 56 57 57 60 60 56 57 58 56 56 58 59 62 61 61 62 63 64 66 69 71 68 63 50 38 47 53 61 62 62 66 69 74 78 84
59 57 58 56 58 57 58 59 57 58 58 59 61 65 61 60 59 59 58 57 58 59 62 65 67 68 67 70 58 59 53 36 39 48 54 59 60 62 69 74 75 82 82 78
60 62 61 63 62 58 60 62 63 61 61 62 65 65 63 62 62 60 59 61 59 61 63 66 70 66 69 62 54 57 36 38 52 56 55 59 65 68 70 74 81 82 75 65
63 65 65 67 66 64 66 66 65 65 64 65 65 68 67 65 64 63 63 62 63 63 67 72 71 73 67 62 48 34 39 49 52 51 55 61 64 67 76 80 82 74 62 60
67 67 71 72 70 68 67 68 67 67 66 66 65 65 65 68 68 65 64 64 66 69 71 73 73 71 56 41 39 37 51 54 55 52 59 64 70 74 79 83 73 62 58 53
70 70 75 73 72 69 69 68 67 66 65 64 64 64 67 69 69 70 70 70 72 74 73 74 75 65 42 43 51 51 50 58 56 55 63 70 72 81 78 71 61 56 51 54
74 71 71 74 70 67 65 65 63 62 63 64 65 67 70 70 70 73 75 77 79 80 78 73 60 49 44 32 45 53 53 57 58 66 66 74 74 75 69 61 56 51 52 50
66 66 66 68 69 67 65 65 66 66 67 67 69 72 75 76 76 77 79 81 78 75 70 59 44 39 35 39 48 59 56 63 65 66 70 75 75 77 61 56 52 52 48 36
67 69 69 69 70 71 70 70 69 68 71 70 73 76 81 82 80 77 75 71 67 60 51 46 37 36 34 44 54 60 62 63 65 65 67 71 73 60 55 52 54 49 35 5
74 73 73 74 74 75 75 75 76 76 75 71 67 66 67 65 63 61 60 59 56 50 44 40 36 43 51 57 58 62 66 70 65 65 66 62 71 53 51 54 52 37 6 27
60 62 66 72 72 70 65 62 58 54 52 49 50 52 53 51 51 51 50 49 52 49 44 43 37 47 46 54 56 66 67 70 67 62 61 66 63 46 50 49 37 7 29 27
48 48 50 50 49 49 47 48 49 44 38 37 40 42 42 42 43 45 45 46 49 50 45 43 40 41 48 54 58 67 71 71 57 63 70 67 54 42 39 25 12 23 27 25
48 50 51 46 45 39 39 43 41 39 37 39 40 42 41 38 39 42 43 44 47 48 39 39 38 39 48 54 56 53 54 61 62 67 62 57 38 35 14 9 7 25 20 21
45 46 46 44 42 40 40 41 40 40 38 40 40 41 40 39 41 43 41 41 44 44 41 32 31 34 45 46 46 53 59 54 64 68 59 45 32 26 16 11 14 23 16 16
51 47 46 45 41 38 38 43 43 44 42 41 42 41 41 42 42 42 40 39 41 38 37 30 27 35 43 50 53 55 56 60 62 51 45 30 28 22 15 12 17 17 16 12
57 50 47 45 43 42 47 46 47 50 50 49 47 45 43 43 46 43 41 40 37 37 34 34 28 32 40 44 51 55 60 52 43 38 36 23 23 19 15 14 16 21 15 9
60 56 51 48 47 47 49 51 50 52 54 53 50 48 48 47 48 43 42 38 35 32 36 33 32 37 34 32 34 31 36 38 29 34 29 20 19 15 13 9 15 21 18 9
61 60 54 52 49 50 52 53 54 53 53 53 53 53 52 51 50 48 44 37 35 28 36 40 39 37 38 32 32 33 43 32 32 27 23 18 16 11 7 11 19 21 16 10
65 61 58 55 53 54 54 54 54 53 54 54 54 55 55 53 50 48 40 35 34 32 30 47 42 48 42 36 38 44 47 39 32 26 21 20 18 13 13 13 19 23 21 18
66 66 63 62 59 58 57 57 55 55 54 54 57 58 55 55 51 41 35 38 36 34 30 41 50 50 43 43 44 46 48 44 37 23 21 21 19 17 17 19 19 21 22 21
Wind_Direction
246 250 258 264 264 270 276 279 279 277 277 278 277 273 272 275 277 280 281 286 289 290 294 298 297 297 298 299 298 296 295 298 300 301 301 300 298 299 296 295 295 295 294 291
249 253 259 264 270 275 276 276 278 280 278 280 282 282 278 278 280 280 282 285 293 294 294 292 294 294 295 296 296 297 300 301 303 303 301 300 298 297 295 294 295 294 289 289
248 255 259 266 273 274 275 277 278 277 279 279 278 279 281 284 286 287 288 289 291 290 289 288 287 290 293 297 299 301 302 304 304 302 300 302 304 297 295 293 294 295 297 295
254 259 265 271 271 271 273 277 282 282 283 285 281 278 281 284 286 288 289 289 289 286 284 282 285 289 291 295 297 299 301 300 299 299 299 302 295 292 291 292 295 298 299 298
261 263 267 269 272 273 277 280 282 284 282 283 280 279 281 284 287 288 291 290 285 285 285 287 288 289 290 294 295 296 297 299 297 296 297 292 283 286 291 293 295 295 298 301
262 266 267 270 274 274 274 279 282 280 281 281 282 284 282 284 285 289 289 288 288 289 288 288 289 292 295 297 298 300 301 300 297 296 291 280 284 289 294 298 301 305 309 310
261 265 265 267 269 272 277 280 279 281 281 283 285 283 285 285 286 288 286 286 286 288 290 291 292 293 298 299 302 301 304 300 298 286 280 282 286 296 303 309 310 310 309 310
264 265 264 267 270 274 277 280 282 280 282 282 282 284 286 286 286 285 284 283 285 287 290 294 297 299 302 302 309 282 300 297 286 279 281 291 303 311 310 312 311 312 310 310
262 267 268 271 272 273 275 278 278 280 281 282 282 282 282 282 282 283 282 282 284 287 290 292 294 297 302 300 300 295 278 277 292 281 293 306 308 306 311 314 312 313 314 315
264 267 270 269 271 273 274 275 277 278 280 280 279 280 282 280 280 280 282 286 288 290 290 292 296 301 300 295 293 294 281 298 302 305 306 310 311 313 313 314 315 317 319 316
267 268 270 271 272 272 273 275 276 277 276 276 277 278 279 281 283 284 284 285 286 288 291 295 298 302 296 290 290 279 290 303 308 310 310 309 313 311 316 317 316 319 317 316
267 269 270 270 271 272 272 272 272 274 275 274 274 276 277 278 283 286 286 286 287 288 290 293 295 295 284 285 292 294 300 301 304 304 308 309 314 316 317 315 319 317 320 321
264 264 266 268 269 268 268 270 272 272 273 275 276 276 278 281 282 284 287 288 290 291 293 295 293 282 279 286 285 281 289 292 297 302 304 308 318 320 317 319 317 320 322 326
261 265 266 268 269 269 271 271 272 275 276 276 278 281 282 282 284 284 284 286 288 290 293 290 278 267 273 269 258 262 275 285 296 303 305 314 312 316 318 317 318 322 327 326
256 259 261 262 265 269 270 272 274 276 277 278 279 280 280 282 283 284 286 287 287 287 284 278 264 256 251 262 258 262 273 282 293 302 312 317 321 320 318 318 320 325 326 3
256 257 259 261 263 268 270 273 274 274 275 280 281 279 279 282 286 287 286 287 289 287 280 279 265 240 256 267 265 265 275 276 289 302 311 321 326 320 319 323 321 326 334 134
259 258 259 263 265 270 272 271 273 275 277 278 278 280 282 285 287 289 291 293 293 293 290 286 275 245 261 271 272 264 270 282 293 303 312 317 326 321 326 326 329 335 139 133
252 252 254 257 261 264 265 269 268 271 275 281 282 285 290 292 294 292 288 287 290 293 292 285 276 263 254 265 269 265 269 281 297 302 313 317 323 325 330 349 35 135 140 135
255 257 256 256 257 258 266 264 266 271 275 280 278 284 292 295 300 295 287 287 289 293 293 281 272 266 252 256 261 267 278 285 296 302 314 322 315 328 337 5 115 141 143 130
253 257 263 263 263 261 266 272 274 273 275 279 287 289 293 298 301 300 294 287 289 289 297 288 270 262 255 260 265 271 277 288 292 297 309 317 311 323 301 320 166 161 155 145
257 257 261 264 267 268 271 278 279 280 277 283 288 293 298 299 298 303 293 290 292 286 289 265 256 256 258 260 266 270 274 286 292 301 311 304 310 316 291 307 185 182 172 161
261 261 263 265 266 269 273 278 281 283 282 285 288 293 296 299 300 299 289 281 284 281 273 262 250 258 265 269 270 271 274 281 295 310 299 296 303 305 287 297 210 193 182 166
261 261 260 263 264 266 268 271 274 279 280 283 289 294 295 298 301 298 292 276 278 274 271 254 260 259 269 272 271 280 285 295 304 311 296 291 294 301 287 242 193 196 195 197
258 259 259 260 261 260 263 267 270 273 279 283 286 289 292 296 298 302 292 277 277 271 266 251 257 257 265 274 279 283 294 300 312 306 292 281 284 286 262 219 204 206 208 226
256 258 260 261 264 265 265 265 268 270 274 280 285 287 289 295 296 297 283 273 271 253 260 243 255 251 256 266 273 282 289 301 313 304 292 269 268 257 245 219 208 221 228 240
255 259 259 259 261 261 263 266 269 271 275 280 284 285 291 295 296 285 273 268 272 268 269 250 239 255 263 267 273 281 286 289 314 298 292 264 259 244 236 220 219 236 242 252
Height
10873 10874 10876 10876 10876 10877 10878 10878 10879 10879 10881 10880 10878 10879 10880 10878 10876 10877 10876 10873 10868 10863 10858 10853 10847 10840 10835 10829 10822 10816 10812 10809 10805 10801 10796 10791 10785 10779 10770 10763 10757 10750 10744 10738
10868 10870 10871 10870 10871 10873 10873 10873 10873 10873 10873 10873 10870 10865 10868 10868 10869 10869 10868 10866 10861 10855 10849 10844 10839 10832 10828 10820 10811 10804 10799 10796 10792 10786 10780 10775 10770 10763 10754 10748 10741 10735 10728 10721
10863 10864 10865 10865 10865 10866 10867 10867 10867 10865 10864 10866 10864 10857 10855 10857 10856 10857 10859 10858 10852 10846 10842 10839 10832 10825 10820 10813 10804 10796 10788 10785 10781 10773 10766 10759 10752 10743 10736 10729 10723 10717 10709 10701
10856 10856 10858 10859 10856 10858 10858 10861 10861 10858 10853 10856 10855 10850 10845 10847 10845 10847 10846 10845 10842 10838 10834 10831 10825 10815 10809 10804 10798 10791 10785 10777 10771 10763 10754 10749 10740 10731 10722 10715 10707 10699 10690 10682
10848 10850 10851 10848 10847 10851 10849 10854 10853 10850 10845 10843 10841 10843 10839 10839 10838 10837 10836 10832 10827 10825 10822 10818 10811 10804 10798 10793 10788 10784 10776 10768 10760 10750 10744 10738 10727 10720 10713 10705 10695 10686 10675 10664
10838 10842 10840 10839 10839 10842 10840 10843 10843 10841 10836 10832 10828 10831 10833 10832 10832 10829 10826 10820 10812 10808 10804 10800 10797 10792 10786 10780 10774 10770 10762 10752 10743 10737 10732 10723 10715 10709 10701 10691 10680 10669 10659 10647
10828 10832 10830 10830 10830 10831 10830 10831 10830 10829 10825 10823 10817 10815 10823 10823 10821 10820 10815 10808 10801 10794 10790 10787 10783 10778 10775 10769 10763 10754 10746 10737 10730 10725 10717 10711 10703 10695 10685 10676 10667 10657 10645 10633
10815 10818 10815 10819 10819 10821 10819 10817 10818 10815 10814 10812 10807 10799 10807 10807 10807 10804 10801 10797 10790 10785 10778 10772 10767 10763 10759 10755 10752 10738 10735 10727 10720 10712 10705 10698 10689 10679 10671 10663 10652 10641 10630 10617
10803 10800 10805 10804 10805 10808 10806 10805 10801 10803 10802 10800 10794 10790 10794 10792 10791 10790 10786 10782 10781 10776 10770 10762 10754 10754 10749 10739 10735 10730 10722 10716 10709 10699 10692 10685 10675 10668 10661 10650 10638 10624 10611 10600
10792 10786 10788 10786 10791 10794 10792 10790 10790 10789 10789 10786 10783 10773 10774 10777 10775 10774 10772 10769 10765 10761 10753 10744 10740 10732 10727 10724 10718 10711 10709 10704 10695 10686 10680 10672 10666 10657 10648 10635 10620 10608 10597 10587
10778 10775 10770 10768 10774 10776 10778 10777 10777 10775 10775 10773 10770 10764 10759 10752 10754 10758 10759 10755 10749 10743 10737 10729 10723 10718 10708 10705 10702 10699 10695 10688 10683 10676 10670 10664 10655 10644 10631 10618 10606 10596 10587 10578
10758 10760 10749 10753 10757 10762 10762 10762 10762 10761 10759 10757 10755 10752 10747 10742 10740 10739 10738 10736 10732 10726 10723 10718 10711 10705 10699 10697 10693 10687 10680 10676 10672 10666 10661 10653 10643 10632 10617 10604 10595 10586 10578 10570
10741 10744 10737 10736 10740 10742 10744 10746 10746 10746 10744 10742 10740 10735 10732 10732 10732 10726 10721 10717 10709 10706 10704 10700 10695 10690 10687 10685 10682 10677 10673 10667 10663 10657 10651 10642 10633 10618 10604 10594 10585 10578 10570 10561
10727 10726 10724 10719 10719 10725 10727 10730 10729 10730 10729 10728 10724 10720 10714 10712 10714 10712 10706 10701 10696 10689 10684 10683 10682 10677 10678 10673 10669 10664 10662 10657 10654 10647 10640 10633 10622 10607 10595 10587 10578 10570 10563 10554
10712 10710 10709 10706 10705 10707 10711 10713 10714 10717 10712 10715 10710 10705 10695 10691 10692 10691 10687 10681 10678 10678 10674 10670 10669 10668 10666 10663 10659 10656 10652 10649 10645 10639 10633 10624 10611 10598 10589 10580 10570 10562 10555 10550
10693 10695 10695 10694 10694 10693 10695 10696 10695 10695 10696 10697 10693 10686 10680 10676 10673 10671 10667 10663 10660 10659 10658 10657 10656 10657 10655 10651 10648 10645 10643 10640 10636 10630 10625 10614 10602 10593 10582 10571 10560 10552 10549 10550
10675 10677 10677 10679 10679 10680 10683 10680 10678 10679 10680 10680 10676 10670 10666 10665 10664 10658 10652 10649 10644 10642 10643 10642 10642 10644 10642 10639 10637 10636 10633 10630 10629 10626 10616 10607 10599 10589 10577 10565 10552 10546 10549 10552
10660 10662 10663 10666 10668 10671 10669 10668 10669 10670 10669 10666 10662 10659 10656 10656 10653 10650 10645 10641 10636 10632 10631 10628 10628 10629 10630 10628 10626 10626 10626 10625 10623 10617 10608 10599 10593 10586 10577 10566 10556 10554 10554 10555
10647 10647 10650 10656 10657 10660 10657 10654 10657 10657 10657 10655 10653 10651 10649 10646 10643 10638 10634 10631 10627 10622 10619 10617 10616 10616 10618 10619 10619 10620 10619 10617 10615 10610 10600 10593 10589 10583 10578 10571 10564 10562 10561 10559
10636 10636 10637 10641 10644 10648 10644 10644 10643 10644 10645 10641 10642 10640 10638 10635 10631 10627 10624 10622 10618 10613 10609 10606 10607 10607 10608 10609 10612 10612 10612 10610 10605 10601 10594 10589 10585 10580 10576 10572 10567 10565 10563 10561
10623 10626 10628 10628 10632 10636 10635 10630 10629 10628 10631 10631 10629 10628 10628 10624 10621 10618 10614 10611 10607 10605 10601 10599 10599 10600 10600 10601 10602 10603 10603 10602 10598 10596 10587 10584 10580 10575 10573 10569 10567 10565 10564 10562
10606 10615 10618 10620 10622 10624 10619 10619 10618 10615 10614 10615 10616 10618 10618 10615 10612 10607 10604 10601 10599 10596 10593 10591 10591 10591 10592 10594 10594 10595 10594 10593 10593 10589 10582 10579 10575 10571 10569 10566 10565 10563 10563 10562
10591 10599 10604 10607 10610 10611 10610 10607 10607 10604 10602 10603 10605 10605 10604 10603 10600 10596 10593 10592 10590 10588 10585 10586 10585 10585 10586 10586 10586 10587 10586 10586 10584 10582 10577 10573 10571 10567 10564 10562 10562 10562 10561 10561
10578 10580 10588 10591 10596 10597 10596 10596 10594 10594 10594 10594 10593 10591 10590 10589 10587 10584 10581 10582 10581 10581 10578 10580 10578 10579 10579 10580 10579 10578 10579 10578 10577 10575 10570 10568 10568 10564 10562 10560 10560 10560 10559 10558
10561 10568 10573 10578 10581 10581 10583 10581 10582 10584 10583 10582 10580 10579 10578 10577 10574 10571 10569 10571 10571 10572 10570 10569 10570 10570 10572 10573 10572 10572 10572 10571 10569 10566 10564 10563 10563 10560 10559 10558 10558 10558 10557 10555
10547 10551 10556 10560 10564 10566 10566 10566 10567 10569 10569 10568 10567 10565 10566 10565 10563 10558 10558 10558 10559 10560 10559 10558 10559 10561 10564 10565 10565 10564 10563 10563 10563 10559 10557 10557 10557 10556 10556 10555 10554 10554 10553 10552